Simultaneous Nadir Overpasses (SNOs) Predictions

Prediction of SNOs near US between AQUA and NPP Satellite Orbit:

Table of predicted SNOs near US for the next 10.0 days since TLE Epoch: 4/30/2022
Index Date (AQUA) Time (AQUA) AQUA Lat,Lon Date (NPP) Time (NPP) NPP Lat,Lon Distance(km) Time Diff (sec)
1 05/06/2022 06:48:32 27.34, -73.40 05/06/2022 06:42:13 27.57, -74.68 128.62 379
2 05/06/2022 08:24:54 36.38, -95.67 05/06/2022 08:21:06 36.73, -97.43 161.81 228
3 05/06/2022 10:01:14 45.49,-117.42 05/06/2022 09:59:58 45.89,-119.62 177.08 76
4 05/08/2022 20:57:49 49.97,-119.86 05/08/2022 20:49:29 51.60,-122.18 244.51 500
